When you browse on this site, cookies collect data to enhance your experience and personalize the content and advertising you see.
Visit our Privacy Policy to learn more. By continuing to use the site, you agree to this use of cookies and data.
  • In Hungary
  • List of Countries
  • For 7 days
  • Water Temperature
  • Weather Map
  • News
  • Weather Widgets
  • user-avatar
    Login

    Hourly Weather Jelonka

    Today, 8 April, Wednesday

    Time Temperature Precipitation Wind Pressure Humidity
    00:00 +9°C° 0 mm 3 mps 756 mmHg 70%
    01:00 +8°C° 0 mm 3 mps 756 mmHg 75%
    02:00 +7°C° 0 mm 2 mps 756 mmHg 81%
    03:00 +6°C° 0 mm 2 mps 756 mmHg 81%
    04:00 +6°C° 0 mm 2 mps 756 mmHg 81%
    05:00 +5°C° 0 mm 2 mps 756 mmHg 81%
    06:00 +6°C° 0 mm 2 mps 756 mmHg 76%
    07:00 +7°C° 0 mm 2 mps 757 mmHg 71%
    08:00 +8°C° 0 mm 2 mps 757 mmHg 66%
    09:00 +9°C° 0 mm 2 mps 757 mmHg 59%
    10:00 +12°C° 0 mm 2 mps 757 mmHg 51%
    11:00 +14°C° 0 mm 2 mps 757 mmHg 44%
    12:00 +15°C° 0 mm 2 mps 756 mmHg 41%
    13:00 +16°C° 0 mm 2 mps 756 mmHg 38%
    14:00 +17°C° 0 mm 2 mps 755 mmHg 35%
    15:00 +17°C° 0 mm 2 mps 755 mmHg 35%
    16:00 +18°C° 0 mm 1 mps 755 mmHg 35%
    17:00 +18°C° 0 mm 1 mps 754 mmHg 35%
    18:00 +15°C° 0 mm 1 mps 754 mmHg 40%
    19:00 +13°C° 0 mm 1 mps 753 mmHg 45%
    20:00 +10°C° 0 mm 0 mps 753 mmHg 50%
    21:00 +10°C° 0 mm 0 mps 753 mmHg 52%
    22:00 +10°C° 0 mm 1 mps 753 mmHg 53%
    23:00 +10°C° 0 mm 1 mps 752 mmHg 54%

    Tomorrow, 9 April, Thursday

    Time Temperature Precipitation Wind Pressure Humidity
    00:00 +9°C° 0 mm 1 mps 752 mmHg 55%
    01:00 +8°C° 0 mm 2 mps 751 mmHg 56%
    02:00 +7°C° 0 mm 2 mps 751 mmHg 57%
    03:00 +7°C° 0 mm 2 mps 750 mmHg 58%
    04:00 +7°C° 0 mm 2 mps 750 mmHg 58%
    05:00 +7°C° 0 mm 3 mps 749 mmHg 59%
    06:00 +8°C° 0 mm 3 mps 749 mmHg 61%
    07:00 +8°C° 0 mm 4 mps 748 mmHg 62%
    08:00 +10°C° 0 mm 4 mps 748 mmHg 64%
    09:00 +12°C° 0 mm 4 mps 748 mmHg 57%
    10:00 +14°C° 0 mm 5 mps 747 mmHg 51%
    11:00 +16°C° 0 mm 5 mps 747 mmHg 44%
    12:00 +17°C° 0 mm 6 mps 747 mmHg 41%
    13:00 +19°C° 0 mm 6 mps 746 mmHg 37%
    14:00 +18°C° 0 mm 7 mps 746 mmHg 34%
    15:00 +17°C° 0 mm 6 mps 746 mmHg 42%
    16:00 +16°C° 0 mm 6 mps 745 mmHg 50%
    17:00 +15°C° 0 mm 6 mps 745 mmHg 58%
    18:00 +13°C° 0.5 mm 5 mps 745 mmHg 65%
    19:00 +12°C° 0.5 mm 5 mps 746 mmHg 72%
    20:00 +10°C° 0.5 mm 4 mps 746 mmHg 79%
    21:00 +8°C° 0 mm 4 mps 746 mmHg 82%
    22:00 +7°C° 0 mm 4 mps 746 mmHg 84%
    23:00 +6°C° 0 mm 4 mps 747 mmHg 86%

    Day after tomorrow, 10 April, Friday

    Time Temperature Precipitation Wind Pressure Humidity
    00:00 +5°C° 0 mm 4 mps 747 mmHg 87%
    01:00 +4°C° 0 mm 4 mps 747 mmHg 89%
    02:00 +4°C° 0 mm 4 mps 748 mmHg 90%
    03:00 +3°C° 0 mm 4 mps 748 mmHg 90%
    04:00 +1°C° 0 mm 4 mps 749 mmHg 90%
    05:00 +1°C° 0 mm 4 mps 749 mmHg 90%
    06:00 +1°C° 0 mm 4 mps 749 mmHg 80%
    07:00 +3°C° 0 mm 4 mps 750 mmHg 69%
    08:00 +3°C° 0 mm 4 mps 750 mmHg 59%
    09:00 +5°C° 0 mm 4 mps 751 mmHg 52%
    10:00 +6°C° 0 mm 4 mps 751 mmHg 46%
    11:00 +8°C° 0 mm 4 mps 751 mmHg 39%
    12:00 +8°C° 0 mm 5 mps 751 mmHg 39%
    13:00 +9°C° 0 mm 5 mps 751 mmHg 38%
    14:00 +10°C° 0 mm 5 mps 751 mmHg 38%
    15:00 +9°C° 0 mm 5 mps 751 mmHg 40%
    16:00 +9°C° 0 mm 5 mps 751 mmHg 42%
    17:00 +9°C° 0 mm 5 mps 751 mmHg 44%
    18:00 +8°C° 0 mm 4 mps 751 mmHg 48%
    19:00 +7°C° 0 mm 3 mps 751 mmHg 52%
    20:00 +6°C° 0 mm 2 mps 751 mmHg 56%
    21:00 +5°C° 0 mm 2 mps 751 mmHg 58%
    22:00 +4°C° 0 mm 2 mps 751 mmHg 60%
    23:00 +3°C° 0 mm 3 mps 752 mmHg 62%

    11 April, Saturday

    Time Temperature Precipitation Wind Pressure Humidity
    00:00 +3°C° 0 mm 2 mps 752 mmHg 64%
    01:00 +2°C° 0 mm 2 mps 752 mmHg 65%
    02:00 +2°C° 0 mm 2 mps 752 mmHg 67%
    03:00 +1°C° 0 mm 2 mps 752 mmHg 70%
    04:00 +1°C° 0 mm 2 mps 753 mmHg 72%
    05:00 -1°C° 0 mm 2 mps 753 mmHg 75%
    06:00 +1°C° 0 mm 2 mps 753 mmHg 71%
    07:00 +2°C° 0 mm 2 mps 753 mmHg 68%
    08:00 +3°C° 0 mm 2 mps 754 mmHg 65%
    09:00 +5°C° 0 mm 2 mps 754 mmHg 58%
    10:00 +6°C° 0 mm 2 mps 754 mmHg 50%
    11:00 +8°C° 0 mm 2 mps 754 mmHg 43%
    12:00 +8°C° 0 mm 2 mps 754 mmHg 40%
    13:00 +10°C° 0 mm 1 mps 754 mmHg 37%
    14:00 +11°C° 0 mm 1 mps 754 mmHg 35%
    15:00 +11°C° 0 mm 1 mps 753 mmHg 35%
    16:00 +11°C° 0 mm 1 mps 753 mmHg 35%
    17:00 +10°C° 0 mm 1 mps 753 mmHg 35%
    18:00 +10°C° 0 mm 1 mps 753 mmHg 38%
    19:00 +9°C° 0 mm 1 mps 753 mmHg 41%
    20:00 +8°C° 0 mm 1 mps 753 mmHg 44%
    21:00 +6°C° 0 mm 2 mps 753 mmHg 44%
    22:00 +6°C° 0 mm 2 mps 753 mmHg 45%
    23:00 +5°C° 0 mm 3 mps 753 mmHg 46%

    12 April, Sunday

    Time Temperature Precipitation Wind Pressure Humidity
    00:00 +4°C° 0 mm 3 mps 752 mmHg 48%
    01:00 +4°C° 0 mm 3 mps 752 mmHg 50%
    02:00 +3°C° 0 mm 3 mps 752 mmHg 52%
    03:00 +3°C° 0 mm 3 mps 751 mmHg 53%
    04:00 +2°C° 0 mm 3 mps 751 mmHg 54%
    05:00 +2°C° 0 mm 3 mps 750 mmHg 55%
    06:00 +3°C° 0 mm 4 mps 750 mmHg 54%
    07:00 +4°C° 0 mm 4 mps 750 mmHg 54%
    08:00 +5°C° 0 mm 4 mps 750 mmHg 54%
    09:00 +7°C° 0 mm 5 mps 749 mmHg 50%
    10:00 +9°C° 0 mm 5 mps 749 mmHg 46%
    11:00 +12°C° 0 mm 5 mps 748 mmHg 42%
    12:00 +13°C° 0 mm 5 mps 748 mmHg 41%
    13:00 +14°C° 0 mm 5 mps 747 mmHg 40%
    14:00 +15°C° 0 mm 5 mps 747 mmHg 39%
    15:00 +15°C° 0 mm 5 mps 746 mmHg 40%
    16:00 +15°C° 0 mm 5 mps 746 mmHg 40%
    17:00 +15°C° 0 mm 4 mps 745 mmHg 41%
    18:00 +14°C° 0 mm 4 mps 745 mmHg 46%
    19:00 +12°C° 0 mm 3 mps 744 mmHg 51%
    20:00 +10°C° 0 mm 3 mps 744 mmHg 56%
    21:00 +10°C° 0 mm 3 mps 744 mmHg 57%
    22:00 +9°C° 0 mm 3 mps 743 mmHg 58%
    23:00 +9°C° 0 mm 3 mps 743 mmHg 58%

    13 April, Monday

    Time Temperature Precipitation Wind Pressure Humidity
    00:00 +9°C° 0 mm 3 mps 743 mmHg 60%
    01:00 +8°C° 0 mm 3 mps 742 mmHg 61%
    02:00 +8°C° 0 mm 3 mps 742 mmHg 63%
    03:00 +8°C° 0 mm 3 mps 741 mmHg 66%
    04:00 +8°C° 0 mm 3 mps 741 mmHg 70%
    05:00 +8°C° 0 mm 3 mps 740 mmHg 73%
    06:00 +8°C° 0 mm 4 mps 740 mmHg 71%
    07:00 +9°C° 0 mm 5 mps 740 mmHg 70%
    08:00 +12°C° 0 mm 5 mps 740 mmHg 68%
    09:00 +13°C° 0 mm 6 mps 739 mmHg 64%
    10:00 +14°C° 0 mm 7 mps 739 mmHg 60%
    11:00 +15°C° 0 mm 7 mps 738 mmHg 57%
    12:00 +16°C° 0.1 mm 8 mps 738 mmHg 55%
    13:00 +17°C° 0.1 mm 8 mps 737 mmHg 52%
    14:00 +18°C° 0.1 mm 8 mps 737 mmHg 50%
    15:00 +18°C° 0.2 mm 7 mps 736 mmHg 51%
    16:00 +18°C° 0.2 mm 7 mps 735 mmHg 51%
    17:00 +18°C° 0.2 mm 7 mps 734 mmHg 52%
    18:00 +16°C° 0.3 mm 6 mps 734 mmHg 58%
    19:00 +15°C° 0.3 mm 5 mps 733 mmHg 65%
    20:00 +13°C° 0.3 mm 4 mps 733 mmHg 72%
    21:00 +13°C° 0.3 mm 4 mps 732 mmHg 75%
    22:00 +12°C° 0.3 mm 4 mps 732 mmHg 79%
    23:00 +12°C° 0.3 mm 4 mps 732 mmHg 82%
    Show more